Current Version              Previous Version:    01  02  03  04  05  06  07  08  09  10  11  12  13  14  15  16  17  18  19  20  21  22  23  24  25  26  27  28  29  30  
   31  32  33  34  35  36  37  38  39  40  41  42  43  44  45  46  47  48  49  50  51  52  53  54  55  56  57  58  59  60  

[Printable]
017
ASUS44 KEWX 021102
RWRTX
SOUTH TEXAS REGIONAL WEATHER ROUNDUP
NATIONAL WEATHER SERVICE AUSTIN/SAN ANTONIO TX
600 AM CDT TUE SEP 02 2014

NOTE: "FAIR" INDICATED FEW OR NO CLOUDS BELOW 12,000 FEET WITH NO
SIGNIFICANT WEATHER AND/OR OBSTRUCTIONS TO VISIBILITY.

* - THESE STATIONS ARE NOT NWS OR FAA STATIONS...AND ARE NOT SUBJECT
    TO NWS AND FAA QUALITY CONTROL.

TXZ171-172-183>190-021200-
TEXAS HILL COUNTRY AND EDWARDS PLATEAU

CITY           SKY/WX    TMP DP  RH WIND       PRES   REMARKS
JUNCTION       CLEAR     75  69  81 S8        29.95S
*LLANO         CLOUDY    79  72  78 S5        29.96S
BURNET         CLEAR     76  71  85 S9        29.96S
*HORSESHOE BAY CLEAR     76  70  81 S6        29.93S
*KERRVILLE     CLOUDY    76  73  88 SE8       29.97S
*FREDERICKSBRG PTCLDY    74  69  83 S7        29.97S
*ROCKSPRINGS   CLOUDY    73  70  88 SE13G20   30.00R
*BOERNE STAGE  PTCLDY    75  70  83 S7        29.97S
*CASTROVILLE   CLOUDY    79  72  78 SE6       29.95R
HONDO          CLOUDY    79  74  84 SE8       29.95R
*UVALDE        MOCLDY    78  73  86 SE8       29.93S
DEL RIO        MOCLDY    81  71  71 E9        29.89R
LAUGHLIN AFB   MOCLDY    79  72  78 SE10      29.90S
CARRIZO SPRGS  CLEAR     77  72  83 SE5       29.89R
$$

TXZ173-191>194-202-209-217>225-228-021200-
CENTRAL AND SOUTH CENTRAL TEXAS

CITY           SKY/WX    TMP DP  RH WIND       PRES   REMARKS
GEORGETOWN     CLOUDY    79  73  83 S7        29.95R
AUSTIN/BERGSTM PTCLDY    76  74  93 S5        29.93S
AUSTIN/MABRY   PTCLDY    78  75  90 S5        29.93S
*AUSTIN/EXEC   PTCLDY    77  75  94 S7        29.94S
*LAGO VISTA    PTCLDY    77  72  85 S7        29.96R
SAN MARCOS     CLEAR     75  70  83 SE5       29.95S
NEW BRAUNFELS  PTCLDY    76  73  91 S6        29.92S
RANDOLPH AFB   PTCLDY    77  73  88 SE6       29.95R
PT SAN ANTONIO MOCLDY    79  74  85 SE7       29.92S
SAN ANTONIO    MOCLDY    80  74  81 S8        29.94
STINSON FIELD  MOCLDY    79  75  87 S5        29.92R
*PLEASANTON    PTCLDY    77  74  90 E3        29.92R
*LA GRANGE     MOCLDY    77  76  97 CALM      29.91S
*GIDDINGS      MOCLDY    76  74  94 CALM      29.97S
*GONZALES      CLOUDY    78  77  97 CALM      29.92S
$$

TXZ163>164-176>182-195>201-210>213-226-227-235-021200-
SOUTHEAST TEXAS

CITY           SKY/WX    TMP DP  RH WIND       PRES   REMARKS
COLLEGE STN    CLOUDY    77  75  93 S6        29.94R
*BRYAN         CLOUDY    76  75  98 SE5       29.93S
*CALDWELL      PTCLDY    75  75 100 CALM      29.96S
*CROCKETT      PTCLDY    81  79  94 S5        29.97F
*BRENHAM       CLOUDY    77  75  96 CALM      29.94S FOG
HUNTSVILLE     PTCLDY    78  76  93 CALM      29.95R
CONROE         MOCLDY    75  74  96 CALM      29.95S
HOUSTON BUSH   PTCLDY    77  75  94 CALM      29.94R
HOUSTON HOBBY  PTCLDY    80  76  87 SE3       29.93R
*HOUSTON SW AP CLEAR    N/A N/A N/A E3        29.94R
PEARLAND       PTCLDY    80  76  87 E5        29.95R
HOUSTON HOOKS  CLEAR     77  75  93 E3        29.94S
ELLINGTON FLD  PTCLDY    81  79  94 CALM      29.96R
SUGAR LAND     CLEAR     80  77  90 SE7       29.93R
*HOUSTON EXEC  PTCLDY    77  77 100 E3        29.94S
*CLEVELAND MUN PTCLDY    74  73  98 CALM      29.96R FOG
*WHARTON       CLEAR     76  75  95 SE3       29.93S
$$

TXZ214>216-236>238-021200-
THE UPPER TEXAS COAST

CITY           SKY/WX    TMP DP  RH WIND       PRES   REMARKS
*ORANGE        CLEAR     79  79 100 CALM      29.98R
PORT ARTHUR    CLEAR     79  76  90 S6        29.96R
GALVESTON      CLEAR     83  77  82 S13       29.94S HX  92
ANGLETON       PTCLDY    79  76  90 SE6       29.92S
*BAY CITY      PTCLDY    80  80 100 SE3       29.92S
PALACIOS       CLEAR     83  76  79 S9        29.91R HX  91
$$

TXZ229>234-239>247-021200-
TEXAS COASTAL BEND AND RIO GRANDE PLAINS

CITY           SKY/WX    TMP DP  RH WIND       PRES   REMARKS
VICTORIA       CLEAR     80  77  90 SE5       29.91R
*BEEVILLE      CLEAR     77  77 100 E3        29.90S
ROCKPORT       PTCLDY    83  76  79 SE12      29.88S HX  91
*PORT ARANSAS  PTCLDY    83  76  80 SE9       29.88S HX  91
*PORT LAVACA   CLEAR     79  76  91 SE6       29.90S
*INGLESIDE     CLEAR     83  76  78 SE10      29.88S HX  91
CORPUS CHRISTI PTCLDY    79  76  90 SE6       29.88R
CORPUS NAS     PTCLDY    84  78  82 SE10      29.88R HX  95
*ROBSTOWN      CLEAR     79  76  91 E3        29.89R
ALICE          CLEAR     77  75  93 CALM      29.88R
KINGSVILLE NAS CLEAR     79  77  94 CALM      29.88R
COTULLA        CLEAR     79  74  84 SE6       29.90R
*FAITH RANCH   CLEAR     79  72  78 SE7       29.89S
LAREDO         MOCLDY    81  75  81 E6        29.91R
$$

TXZ248>255-021200-
DEEP SOUTH TEXAS

CITY           SKY/WX    TMP DP  RH WIND       PRES   REMARKS
BROWNSVILLE    CLEAR     80  78  94 E5        29.84S
PORT ISABEL    NOT AVBL
*SOUTH PADRE     N/A     82  79  89 E12       29.84S HX  93
HARLINGEN      CLEAR     78  76  93 CALM      29.84R
*HEBBRONVILLE  MOCLDY    79  75  89 SE6       29.91R
MCALLEN        NOT AVBL
*WESLACO       NOT AVBL
FALFURRIAS     CLEAR     68  66  93 CALM      29.88R
EDINBURG       PTCLDY    79  76  89 CALM      29.87R
*ZAPATA        MOCLDY    80  74  83 E5        29.87R
$$

TXZ213>215-236>238-242>244-246-247-251-254-255-021200-
CMAN STATIONS

STATION/POSITION TIME  TEMP    WIND        PRES    WAVE
                       AIR SEA DIR/SP/G            HT/PER
                 (UTC) (F)     (DEG/KT/KT) (MB)    (FT/S)
SABINE PASS      1000   83 85  180/ 10/ 14 1014.4
SEA RIM ST PARK  1000   83     170/  8/ 10 1014.7
NORTH JETTY/GLS  1000   84 84  200/ 16/ 17   N/A
EAGLE POINT      1000   83 84  180/ 11/ 14 1013.7
MORGANS POINT    1000   84     140/  5/  8 1013.5
MISSION/ARANSAS  1000   82     140/ 13     1013.0
PORT O`CONNOR    1000          140/ 15/ 16   N/A
PORT ARANSAS     1000   84 85  130/ 16/ 18 1012.3
MALAQUITE BEACH  1000   84 85  120/ 15/ 16 1011.0
BAFFIN BAY       1000   83 83  130/ 10/ 12 1011.3
PORT ISABEL      1000   83 84  100/  6/ 14 1010.6
$$

GMZ080-GMZ150>470-021200-
OFFSHORE BUOY REPORTS

STATION/POSITION TIME  TEMP    WIND        PRES    WAVE
                       AIR SEA DIR/SP/G            HT/PER
                 (UTC) (F)     (DEG/KT/KT) (MB)    (FT/S)
20 E GALVESTON   1100   84 85  150/ 10/ 16 1013.5    4/ 5
90 E PT ARANSAS  1100   85 85  140/ 17/ 21 1012.6    5/ 6
35 NE PT MANSFLD 1000   85 85  140/ 16/ 19 1010.3    5/ 6
200 E PT ISABEL  1000   83 85  130/ 17/ 19 1012.5    7/ 8
$$